Menominee, MI

1:06 PM CDT on June 26, 2017 (GMT -0500)
Menominee-Marinette Twin County

Weather History for KMNM - March, 2014

Change the Weather History Date:

Saturday, March 22, 2014

  Actual Average Record
Temperature  
Mean Temperature 24 °F -  
Max Temperature 33 °F 43 °F 60 °F (2012)
Min Temperature 14 °F 23 °F 1 °F (2004)
Degree Days  
Heating Degree Days 42    
Moisture  
Dew Point 13 °F    
Average Humidity 61    
Maximum Humidity 100    
Minimum Humidity 36    
Precipitation  
Precipitation 0.00 in - - ()
Sea Level Pressure  
Sea Level Pressure 30.12 in    
Wind  
Wind Speed 9 mph (NNW)    
Max Wind Speed 18 mph    
Max Gust Speed 25 mph    
Visibility 10 miles    
Events      
Averages and records for this station are not official NWS values.
T = Trace of Precipitation, MM = Missing Value Source: NWS Daily Summary

Daily Weather History Graph

Daily Weather History Graph

Search for Another Location

Airport or City:

Trip Planner

Search our weather history database for the weather conditions in past years. The results will help you decide how hot, cold, wet, or windy it might be!

Date:

Astronomy

Mar. 22, 2014 Rise Set
Actual Time 6:49 AM CDT 7:05 PM CDT
Civil Twilight 6:20 AM CDT 7:35 PM CDT
Nautical Twilight 5:45 AM CDT 8:09 PM CDT
Astronomical Twilight 5:10 AM CDT 8:45 PM CDT
Moon 12:37 AM CDT (3/22) 10:19 AM CDT (3/22)
Length of Visible Light 13h 14m
Length of Day
12h 15m
Waning Gibbous, 65% of the Moon is Illuminated
Mar 22
Waning Gibbous
Mar 23
Last Quarter
Mar 30
New
Apr 7
First Quarter
Apr 15
Full

Hourly Weather History & Observations

Time (CDT) Temp. Windchill Dew Point Humidity Pressure Visibility Wind Dir Wind Speed Gust Speed Precip Events Conditions
12:15 AM 30.2 °F 24.3 °F 28.4 °F 93% 29.83 in 10.0 mi North 5.8 mph - N/A   Overcast
12:35 AM 28.4 °F 21.2 °F 28.4 °F 100% 29.83 in 10.0 mi North 6.9 mph - N/A   Overcast
12:55 AM 28.4 °F 22.2 °F 26.6 °F 93% 29.84 in 10.0 mi North 5.8 mph - N/A   Overcast
1:15 AM 28.4 °F 23.3 °F 28.4 °F 100% 29.85 in 10.0 mi North 4.6 mph - N/A   Overcast
1:35 AM 30.2 °F 25.4 °F 28.4 °F 93% 29.85 in 10.0 mi North 4.6 mph - N/A   Overcast
1:55 AM 30.2 °F 26.7 °F 28.4 °F 93% 29.86 in 10.0 mi NNW 3.5 mph - N/A   Overcast
2:15 AM 30.2 °F 25.4 °F 26.6 °F 86% 29.86 in 10.0 mi NW 4.6 mph - N/A   Overcast
2:35 AM 30.2 °F 26.7 °F 28.4 °F 93% 29.87 in 10.0 mi WNW 3.5 mph - N/A   Overcast
2:55 AM 30.2 °F 25.4 °F 28.4 °F 93% 29.87 in 10.0 mi WNW 4.6 mph - N/A   Overcast
3:15 AM 30.2 °F 25.4 °F 26.6 °F 86% 29.88 in 10.0 mi WNW 4.6 mph - N/A   Overcast
3:35 AM 30.2 °F 25.4 °F 28.4 °F 93% 29.89 in 10.0 mi WNW 4.6 mph - N/A   Overcast
3:55 AM 30.2 °F 26.7 °F 28.4 °F 93% 29.90 in 10.0 mi NNW 3.5 mph - N/A   Overcast
4:15 AM 30.2 °F 25.4 °F 28.4 °F 93% 29.91 in 10.0 mi WNW 4.6 mph - N/A   Overcast
4:35 AM 30.2 °F - 28.4 °F 93% 29.92 in 10.0 mi Calm Calm - N/A   Overcast
4:55 AM 30.2 °F 26.7 °F 28.4 °F 93% 29.93 in 10.0 mi West 3.5 mph - N/A   Overcast
5:15 AM 30.2 °F 26.7 °F 28.4 °F 93% 29.94 in 10.0 mi WNW 3.5 mph - N/A   Overcast
5:35 AM 32.0 °F 24.8 °F 28.4 °F 87% 29.95 in 10.0 mi NNW 8.1 mph - N/A   Overcast
5:55 AM 32.0 °F 26.4 °F 26.6 °F 80% 29.96 in 10.0 mi NNW 5.8 mph - N/A   Overcast
6:15 AM 33.8 °F 25.3 °F 26.6 °F 75% 29.97 in 10.0 mi NNW 11.5 mph 17.3 mph N/A   Overcast
6:35 AM 32.0 °F 20.8 °F 24.8 °F 75% 29.99 in 10.0 mi NNW 17.3 mph 24.2 mph N/A   Overcast
6:55 AM 30.2 °F 20.2 °F 21.2 °F 69% 30.01 in 10.0 mi NNW 12.7 mph 19.6 mph N/A   Overcast
7:15 AM 28.4 °F 15.8 °F 15.8 °F 59% 30.03 in 10.0 mi North 18.4 mph 25.3 mph N/A   Overcast
7:35 AM 26.6 °F 16.2 °F 15.8 °F 64% 30.04 in 10.0 mi North 11.5 mph 21.9 mph N/A   Mostly Cloudy
7:55 AM 26.6 °F 14.3 °F 17.6 °F 69% 30.05 in 10.0 mi North 16.1 mph - N/A   Mostly Cloudy
8:15 AM 26.6 °F 15.2 °F 15.8 °F 64% 30.07 in 10.0 mi North 13.8 mph 24.2 mph N/A   Overcast
8:35 AM 24.8 °F 12.4 °F 15.8 °F 69% 30.08 in 10.0 mi North 15.0 mph 23.0 mph N/A   Overcast
8:55 AM 24.8 °F 12.4 °F 14.0 °F 64% 30.10 in 10.0 mi NNW 15.0 mph 25.3 mph N/A   Overcast
9:15 AM 24.8 °F 12.9 °F 12.2 °F 59% 30.11 in 10.0 mi NNW 13.8 mph 20.7 mph N/A   Overcast
9:35 AM 23.0 °F 10.1 °F 12.2 °F 63% 30.13 in 10.0 mi North 15.0 mph 21.9 mph N/A   Overcast
9:55 AM 23.0 °F 10.1 °F 12.2 °F 63% 30.14 in 10.0 mi North 15.0 mph - N/A   Overcast
10:15 AM 23.0 °F 12.4 °F 10.4 °F 59% 30.15 in 10.0 mi NNW 10.4 mph 19.6 mph N/A   Overcast
10:35 AM 23.0 °F 10.1 °F 10.4 °F 59% 30.15 in 10.0 mi North 15.0 mph - N/A   Overcast
10:55 AM 23.0 °F 11.1 °F 10.4 °F 59% 30.16 in 10.0 mi NNW 12.7 mph 21.9 mph N/A   Mostly Cloudy
11:15 AM 24.8 °F 11.9 °F 10.4 °F 54% 30.17 in 10.0 mi NNW 16.1 mph 23.0 mph N/A   Scattered Clouds
11:35 AM 24.8 °F 12.4 °F 8.6 °F 50% 30.17 in 10.0 mi North 15.0 mph 23.0 mph N/A   Mostly Cloudy
11:55 AM 24.8 °F 13.4 °F 8.6 °F 50% 30.17 in 10.0 mi NNW 12.7 mph 17.3 mph N/A   Mostly Cloudy
12:15 PM 24.8 °F 14.6 °F 6.8 °F 46% 30.18 in 10.0 mi NW 10.4 mph 19.6 mph N/A   Mostly Cloudy
12:35 PM 24.8 °F 13.4 °F 8.6 °F 50% 30.19 in 10.0 mi NNW 12.7 mph 21.9 mph N/A   Scattered Clouds
12:55 PM 24.8 °F 16.9 °F 8.6 °F 50% 30.19 in 10.0 mi WNW 6.9 mph 18.4 mph N/A   Mostly Cloudy
1:15 PM 24.8 °F 11.9 °F 8.6 °F 50% 30.19 in 10.0 mi NNW 16.1 mph 23.0 mph N/A   Mostly Cloudy
1:35 PM 26.6 °F 16.8 °F 6.8 °F 43% 30.19 in 10.0 mi NNW 10.4 mph 20.7 mph N/A   Mostly Cloudy
1:55 PM 26.6 °F 15.7 °F 6.8 °F 43% 30.19 in 10.0 mi North 12.7 mph 18.4 mph N/A   Scattered Clouds
2:15 PM 26.6 °F 16.8 °F 6.8 °F 43% 30.19 in 10.0 mi NNW 10.4 mph 25.3 mph N/A   Mostly Cloudy
2:35 PM 26.6 °F 15.7 °F 5.0 °F 40% 30.19 in 10.0 mi NNW 12.7 mph 24.2 mph N/A   Partly Cloudy
2:55 PM 26.6 °F 15.7 °F 5.0 °F 40% 30.19 in 10.0 mi North 12.7 mph 20.7 mph N/A   Clear
3:15 PM 26.6 °F 16.2 °F 5.0 °F 40% 30.19 in 10.0 mi NNW 11.5 mph 18.4 mph N/A   Partly Cloudy
3:35 PM 26.6 °F 17.5 °F 6.8 °F 43% 30.19 in 10.0 mi NW 9.2 mph 19.6 mph N/A   Mostly Cloudy
3:55 PM 26.6 °F 18.2 °F 3.2 °F 37% 30.19 in 10.0 mi North 8.1 mph 16.1 mph N/A   Scattered Clouds
4:15 PM 26.6 °F 16.2 °F 3.2 °F 37% 30.19 in 10.0 mi NNW 11.5 mph 17.3 mph N/A   Partly Cloudy
4:35 PM 26.6 °F 17.5 °F 5.0 °F 40% 30.19 in 10.0 mi North 9.2 mph 18.4 mph N/A   Partly Cloudy
4:55 PM 26.6 °F 15.7 °F 3.2 °F 37% 30.20 in 10.0 mi North 12.7 mph 18.4 mph N/A   Scattered Clouds
5:15 PM 26.6 °F 15.2 °F 5.0 °F 40% 30.20 in 10.0 mi North 13.8 mph - N/A   Partly Cloudy
5:35 PM 26.6 °F 16.8 °F 3.2 °F 37% 30.22 in 10.0 mi North 10.4 mph - N/A   Clear
5:55 PM 26.6 °F 15.7 °F 3.2 °F 37% 30.22 in 10.0 mi North 12.7 mph - N/A   Clear
6:15 PM 24.8 °F 14.6 °F 1.4 °F 36% 30.23 in 10.0 mi North 10.4 mph - N/A   Partly Cloudy
6:35 PM 24.8 °F 14.6 °F 3.2 °F 40% 30.24 in 10.0 mi North 10.4 mph 16.1 mph N/A   Scattered Clouds
6:55 PM 23.0 °F 13.9 °F 1.4 °F 39% 30.24 in 10.0 mi North 8.1 mph - N/A   Partly Cloudy
7:15 PM 21.2 °F 9.5 °F 3.2 °F 46% 30.25 in 10.0 mi North 11.5 mph - N/A   Clear
7:35 PM 21.2 °F 9.5 °F 1.4 °F 42% 30.27 in 10.0 mi NNE 11.5 mph - N/A   Clear
7:55 PM 21.2 °F 11.7 °F 1.4 °F 42% 30.28 in 10.0 mi North 8.1 mph - N/A   Clear
8:15 PM 19.4 °F 8.6 °F 3.2 °F 49% 30.29 in 10.0 mi North 9.2 mph - N/A   Clear
8:35 PM 19.4 °F 8.6 °F 3.2 °F 49% 30.30 in 10.0 mi NNW 9.2 mph - N/A   Clear
8:55 PM 19.4 °F 10.4 °F 3.2 °F 49% 30.32 in 10.0 mi North 6.9 mph - N/A   Clear
9:15 PM 17.6 °F 6.4 °F 3.2 °F 53% 30.32 in 10.0 mi North 9.2 mph - N/A   Clear
9:35 PM 17.6 °F 5.7 °F 3.2 °F 53% 30.33 in 10.0 mi North 10.4 mph - N/A   Clear
9:55 PM 17.6 °F 5.0 °F 1.4 °F 49% 30.33 in 10.0 mi North 11.5 mph - N/A   Clear
10:15 PM 15.8 °F 1.4 °F 3.2 °F 58% 30.34 in 10.0 mi North 13.8 mph - N/A   Clear
10:35 PM 15.8 °F 2.7 °F 1.4 °F 53% 30.34 in 10.0 mi North 11.5 mph 17.3 mph N/A   Clear
10:55 PM 15.8 °F 2.1 °F 1.4 °F 53% 30.35 in 10.0 mi NNW 12.7 mph 17.3 mph N/A   Clear
11:15 PM 14.0 °F 0.5 °F 1.4 °F 57% 30.35 in 10.0 mi North 11.5 mph 17.3 mph N/A   Clear
11:35 PM 14.0 °F 2.0 °F 1.4 °F 57% 30.36 in 10.0 mi NNW 9.2 mph - N/A   Clear
11:55 PM 14.0 °F 2.9 °F 1.4 °F 57% 30.36 in 10.0 mi NNW 8.1 mph - N/A   Clear